Year,Month,Day,Hour,Minute,Value (Times are PST for temperature in C)
2009,07,29,00,00,23.50
2009,07,29,00,01,23.50
2009,07,29,00,02,23.40
2009,07,29,00,03,23.40
2009,07,29,00,04,23.40
2009,07,29,00,05,23.30
2009,07,29,00,06,23.30
2009,07,29,00,07,23.30
2009,07,29,00,08,23.20
2009,07,29,00,09,23.20
2009,07,29,00,10,23.10
2009,07,29,00,11,23.10
2009,07,29,00,12,23.10
2009,07,29,00,13,23.00
2009,07,29,00,14,23.00
2009,07,29,00,15,22.90
2009,07,29,00,16,22.90
2009,07,29,00,17,22.90
2009,07,29,00,18,22.90
2009,07,29,00,19,22.90
2009,07,29,00,20,22.90
2009,07,29,00,21,22.80
2009,07,29,00,22,22.80
2009,07,29,00,23,22.80
2009,07,29,00,24,22.80
2009,07,29,00,25,22.80
2009,07,29,00,26,22.70
2009,07,29,00,27,22.70
2009,07,29,00,28,22.60
2009,07,29,00,29,22.50
2009,07,29,00,30,22.50
2009,07,29,00,31,22.40
2009,07,29,00,32,22.40
2009,07,29,00,33,22.30
2009,07,29,00,34,22.30
2009,07,29,00,35,22.30
2009,07,29,00,36,22.30
2009,07,29,00,37,22.20
2009,07,29,00,38,22.20
2009,07,29,00,39,22.20
2009,07,29,00,40,22.20
2009,07,29,00,41,22.20
2009,07,29,00,42,22.20
2009,07,29,00,43,22.20
2009,07,29,00,44,22.10
2009,07,29,00,45,22.10
2009,07,29,00,46,22.10
2009,07,29,00,47,22.20
2009,07,29,00,48,22.20
2009,07,29,00,49,22.20
2009,07,29,00,50,22.20
2009,07,29,00,51,22.20
2009,07,29,00,52,22.10
2009,07,29,00,53,22.10
2009,07,29,00,54,22.10
2009,07,29,00,55,22.00
2009,07,29,00,56,22.00
2009,07,29,00,57,22.00
2009,07,29,00,58,21.90
2009,07,29,00,59,21.90
2009,07,29,01,00,21.90
2009,07,29,01,01,21.90
2009,07,29,01,02,21.90
2009,07,29,01,03,21.90
2009,07,29,01,04,21.90
2009,07,29,01,05,21.80
2009,07,29,01,06,21.80
2009,07,29,01,07,21.80
2009,07,29,01,08,21.80
2009,07,29,01,09,21.80
2009,07,29,01,10,21.80
2009,07,29,01,11,21.80
2009,07,29,01,12,21.80
2009,07,29,01,13,21.80
2009,07,29,01,14,21.80
2009,07,29,01,15,21.80
2009,07,29,01,16,21.80
2009,07,29,01,17,21.70
2009,07,29,01,18,21.70
2009,07,29,01,19,21.70
2009,07,29,01,20,21.70
2009,07,29,01,21,21.60
2009,07,29,01,22,21.60
2009,07,29,01,23,21.60
2009,07,29,01,24,21.60
2009,07,29,01,25,21.60
2009,07,29,01,26,21.60
2009,07,29,01,27,21.60
2009,07,29,01,28,21.60
2009,07,29,01,29,21.60
2009,07,29,01,30,21.60
2009,07,29,01,31,21.60
2009,07,29,01,32,21.60
2009,07,29,01,33,21.60
2009,07,29,01,34,21.60
2009,07,29,01,35,21.60
2009,07,29,01,36,21.60
2009,07,29,01,37,21.50
2009,07,29,01,38,21.50
2009,07,29,01,39,21.50
2009,07,29,01,40,21.50
2009,07,29,01,41,21.50
2009,07,29,01,42,21.50
2009,07,29,01,43,21.50
2009,07,29,01,44,21.40
2009,07,29,01,45,21.40
2009,07,29,01,46,21.40
2009,07,29,01,47,21.30
2009,07,29,01,48,21.30
2009,07,29,01,49,21.30
2009,07,29,01,50,21.20
2009,07,29,01,51,21.20
2009,07,29,01,52,21.20
2009,07,29,01,53,21.20
2009,07,29,01,54,21.10
2009,07,29,01,55,21.10
2009,07,29,01,56,21.10
2009,07,29,01,57,21.10
2009,07,29,01,58,21.10
2009,07,29,01,59,21.10
2009,07,29,02,00,21.00
2009,07,29,02,01,21.00
2009,07,29,02,02,21.00
2009,07,29,02,03,21.00
2009,07,29,02,04,21.00
2009,07,29,02,05,21.00
2009,07,29,02,06,21.00
2009,07,29,02,07,21.00
2009,07,29,02,08,21.00
2009,07,29,02,09,21.00
2009,07,29,02,10,21.10
2009,07,29,02,11,21.10
2009,07,29,02,12,21.10
2009,07,29,02,13,21.10
2009,07,29,02,14,21.10
2009,07,29,02,15,21.10
2009,07,29,02,16,21.10
2009,07,29,02,17,21.10
2009,07,29,02,18,21.10
2009,07,29,02,19,21.00
2009,07,29,02,20,21.00
2009,07,29,02,21,21.00
2009,07,29,02,22,21.00
2009,07,29,02,23,21.00
2009,07,29,02,24,21.00
2009,07,29,02,25,21.00
2009,07,29,02,26,21.00
2009,07,29,02,27,20.90
2009,07,29,02,28,20.90
2009,07,29,02,29,20.90
2009,07,29,02,30,20.90
2009,07,29,02,31,20.90
2009,07,29,02,32,20.80
2009,07,29,02,33,20.80
2009,07,29,02,34,20.80
2009,07,29,02,35,20.80
2009,07,29,02,36,20.80
2009,07,29,02,37,20.70
2009,07,29,02,38,20.70
2009,07,29,02,39,20.70
2009,07,29,02,40,20.70
2009,07,29,02,41,20.70
2009,07,29,02,42,20.70
2009,07,29,02,43,20.60
2009,07,29,02,44,20.60
2009,07,29,02,45,20.60
2009,07,29,02,46,20.60
2009,07,29,02,47,20.60
2009,07,29,02,48,20.60
2009,07,29,02,49,20.60
2009,07,29,02,50,20.60
2009,07,29,02,51,20.60
2009,07,29,02,52,20.60
2009,07,29,02,53,20.60
2009,07,29,02,54,20.50
2009,07,29,02,55,20.50
2009,07,29,02,56,20.50
2009,07,29,02,57,20.50
2009,07,29,02,58,20.50
2009,07,29,02,59,20.50
2009,07,29,03,00,20.50
2009,07,29,03,01,20.50
2009,07,29,03,02,20.50
2009,07,29,03,03,20.50
2009,07,29,03,04,20.50
2009,07,29,03,05,20.50
2009,07,29,03,06,20.60
2009,07,29,03,07,20.60
2009,07,29,03,08,20.60
2009,07,29,03,09,20.70
2009,07,29,03,10,20.70
2009,07,29,03,11,20.70
2009,07,29,03,12,20.80
2009,07,29,03,13,20.80
2009,07,29,03,14,20.80
2009,07,29,03,15,20.90
2009,07,29,03,16,20.90
2009,07,29,03,17,20.90
2009,07,29,03,18,20.90
2009,07,29,03,19,20.90
2009,07,29,03,20,20.90
2009,07,29,03,21,20.90
2009,07,29,03,22,20.90
2009,07,29,03,23,20.90
2009,07,29,03,24,20.90
2009,07,29,03,25,20.90
2009,07,29,03,26,20.90
2009,07,29,03,27,20.80
2009,07,29,03,28,20.80
2009,07,29,03,29,20.80
2009,07,29,03,30,20.80
2009,07,29,03,31,20.80
2009,07,29,03,32,20.70
2009,07,29,03,33,20.70
2009,07,29,03,34,20.70
2009,07,29,03,35,20.70
2009,07,29,03,36,20.70
2009,07,29,03,37,20.70
2009,07,29,03,38,20.70
2009,07,29,03,39,20.70
2009,07,29,03,40,20.60
2009,07,29,03,41,20.60
2009,07,29,03,42,20.60
2009,07,29,03,43,20.60
2009,07,29,03,44,20.60
2009,07,29,03,45,20.60
2009,07,29,03,46,20.50
2009,07,29,03,47,20.50
2009,07,29,03,48,20.50
2009,07,29,03,49,20.40
2009,07,29,03,50,20.40
2009,07,29,03,51,20.40
2009,07,29,03,52,20.30
2009,07,29,03,53,20.30
2009,07,29,03,54,20.30
2009,07,29,03,55,20.20
2009,07,29,03,56,20.20
2009,07,29,03,57,20.10
2009,07,29,03,58,20.10
2009,07,29,03,59,20.10
2009,07,29,04,00,20.00
2009,07,29,04,01,20.00
2009,07,29,04,02,19.90
2009,07,29,04,03,19.90
2009,07,29,04,04,19.80
2009,07,29,04,05,19.80
2009,07,29,04,06,19.70
2009,07,29,04,07,19.70
2009,07,29,04,08,19.60
2009,07,29,04,09,19.60
2009,07,29,04,10,19.50
2009,07,29,04,11,19.50
2009,07,29,04,12,19.40
2009,07,29,04,13,19.40
2009,07,29,04,14,19.30
2009,07,29,04,15,19.20
2009,07,29,04,16,19.20
2009,07,29,04,17,19.20
2009,07,29,04,18,19.10
2009,07,29,04,19,19.10
2009,07,29,04,20,19.10
2009,07,29,04,21,19.10
2009,07,29,04,22,19.10
2009,07,29,04,23,19.10
2009,07,29,04,24,19.10
2009,07,29,04,25,19.10
2009,07,29,04,26,19.10
2009,07,29,04,27,19.10
2009,07,29,04,28,19.10
2009,07,29,04,29,19.10
2009,07,29,04,30,19.10
2009,07,29,04,31,19.10
2009,07,29,04,32,19.10
2009,07,29,04,33,19.20
2009,07,29,04,34,19.20
2009,07,29,04,35,19.20
2009,07,29,04,36,19.20
2009,07,29,04,37,19.20
2009,07,29,04,38,19.20
2009,07,29,04,39,19.00
2009,07,29,04,40,18.80
2009,07,29,04,41,18.70
2009,07,29,04,42,18.50
2009,07,29,04,43,18.40
2009,07,29,04,44,18.20
2009,07,29,04,45,18.10
2009,07,29,04,46,18.00
2009,07,29,04,47,17.90
2009,07,29,04,48,17.90
2009,07,29,04,49,17.80
2009,07,29,04,50,17.80
2009,07,29,04,51,17.70
2009,07,29,04,52,17.70
2009,07,29,04,53,17.70
2009,07,29,04,54,17.70
2009,07,29,04,55,17.70
2009,07,29,04,56,17.70
2009,07,29,04,57,17.70
2009,07,29,04,58,17.70
2009,07,29,04,59,17.70
2009,07,29,05,00,17.70
2009,07,29,05,01,17.70
2009,07,29,05,02,17.80
2009,07,29,05,03,17.80
2009,07,29,05,04,17.80
2009,07,29,05,05,17.80
2009,07,29,05,06,17.80
2009,07,29,05,07,17.80
2009,07,29,05,08,17.80
2009,07,29,05,09,17.90
2009,07,29,05,10,17.90
2009,07,29,05,11,18.00
2009,07,29,05,12,18.00
2009,07,29,05,13,18.10
2009,07,29,05,14,18.10
2009,07,29,05,15,18.10
2009,07,29,05,16,18.20
2009,07,29,05,17,18.20
2009,07,29,05,18,18.20
2009,07,29,05,19,18.20
2009,07,29,05,20,18.30
2009,07,29,05,21,18.30
2009,07,29,05,22,18.30
2009,07,29,05,23,18.40
2009,07,29,05,24,18.40
2009,07,29,05,25,18.40
2009,07,29,05,26,18.50
2009,07,29,05,27,18.50
2009,07,29,05,28,18.50
2009,07,29,05,29,18.50
2009,07,29,05,30,18.60
2009,07,29,05,31,18.60
2009,07,29,05,32,18.60
2009,07,29,05,33,18.60
2009,07,29,05,34,18.60
2009,07,29,05,35,18.60
2009,07,29,05,36,18.60
2009,07,29,05,37,18.50
2009,07,29,05,38,18.50
2009,07,29,05,39,18.50
2009,07,29,05,40,18.50
2009,07,29,05,41,18.40
2009,07,29,05,42,18.40
2009,07,29,05,43,18.50
2009,07,29,05,44,18.50
2009,07,29,05,45,18.50
2009,07,29,05,46,18.50
2009,07,29,05,47,18.50
2009,07,29,05,48,18.50
2009,07,29,05,49,18.60
2009,07,29,05,50,18.60
2009,07,29,05,51,18.50
2009,07,29,05,52,18.50
2009,07,29,05,53,18.50
2009,07,29,05,54,18.40
2009,07,29,05,55,18.40
2009,07,29,05,56,18.40
2009,07,29,05,57,18.40
2009,07,29,05,58,18.30
2009,07,29,05,59,18.30
2009,07,29,06,00,18.30
2009,07,29,06,01,18.30
2009,07,29,06,02,18.30
2009,07,29,06,03,18.30
2009,07,29,06,04,18.30
2009,07,29,06,05,18.30
2009,07,29,06,06,18.30
2009,07,29,06,07,18.30
2009,07,29,06,08,18.30
2009,07,29,06,09,18.30
2009,07,29,06,10,18.30
2009,07,29,06,11,18.30
2009,07,29,06,12,18.40
2009,07,29,06,13,18.40
2009,07,29,06,14,18.40
2009,07,29,06,15,18.40
2009,07,29,06,16,18.50
2009,07,29,06,17,18.50
2009,07,29,06,18,18.60
2009,07,29,06,19,18.60
2009,07,29,06,20,18.60
2009,07,29,06,21,18.60
2009,07,29,06,22,18.60
2009,07,29,06,23,18.60
2009,07,29,06,24,18.70
2009,07,29,06,25,18.70
2009,07,29,06,26,18.70
2009,07,29,06,27,18.70
2009,07,29,06,28,18.70
2009,07,29,06,29,18.70
2009,07,29,06,30,18.80
2009,07,29,06,31,18.80
2009,07,29,06,32,18.80
2009,07,29,06,33,18.90
2009,07,29,06,34,18.90
2009,07,29,06,35,19.00
2009,07,29,06,36,19.10
2009,07,29,06,37,19.20
2009,07,29,06,38,19.20
2009,07,29,06,39,19.30
2009,07,29,06,40,19.30
2009,07,29,06,41,19.30
2009,07,29,06,42,19.40
2009,07,29,06,43,19.40
2009,07,29,06,44,19.40
2009,07,29,06,45,19.50
2009,07,29,06,46,19.50
2009,07,29,06,47,19.60
2009,07,29,06,48,19.60
2009,07,29,06,49,19.70
2009,07,29,06,50,19.70
2009,07,29,06,51,19.80
2009,07,29,06,52,19.90
2009,07,29,06,53,20.00
2009,07,29,06,54,20.10
2009,07,29,06,55,20.20
2009,07,29,06,56,20.40
2009,07,29,06,57,20.60
2009,07,29,06,58,20.80
2009,07,29,06,59,21.00
2009,07,29,07,00,21.20
2009,07,29,07,01,21.40
2009,07,29,07,02,21.60
2009,07,29,07,03,21.70
2009,07,29,07,04,21.90
2009,07,29,07,05,22.00
2009,07,29,07,06,22.10
2009,07,29,07,07,22.20
2009,07,29,07,08,22.30
2009,07,29,07,09,22.40
2009,07,29,07,10,22.50
2009,07,29,07,11,22.50
2009,07,29,07,12,22.60
2009,07,29,07,13,22.60
2009,07,29,07,14,22.70
2009,07,29,07,15,22.70
2009,07,29,07,16,22.70
2009,07,29,07,17,22.80
2009,07,29,07,18,22.80
2009,07,29,07,19,22.80
2009,07,29,07,20,22.80
2009,07,29,07,21,22.80
2009,07,29,07,22,22.80
2009,07,29,07,23,22.80
2009,07,29,07,24,22.80
2009,07,29,07,25,22.80
2009,07,29,07,26,22.80
2009,07,29,07,27,22.80
2009,07,29,07,28,22.80
2009,07,29,07,29,22.80
2009,07,29,07,30,22.80
2009,07,29,07,31,22.80
2009,07,29,07,32,22.80
2009,07,29,07,33,22.80
2009,07,29,07,34,22.80
2009,07,29,07,35,22.70
2009,07,29,07,36,22.70
2009,07,29,07,37,22.70
2009,07,29,07,38,22.70
2009,07,29,07,39,22.80
2009,07,29,07,40,22.80
2009,07,29,07,41,22.80
2009,07,29,07,42,22.80
2009,07,29,07,43,22.80
2009,07,29,07,44,22.80
2009,07,29,07,45,22.80
2009,07,29,07,46,22.80
2009,07,29,07,47,22.90
2009,07,29,07,48,22.90
2009,07,29,07,49,22.90
2009,07,29,07,50,23.00
2009,07,29,07,51,23.00
2009,07,29,07,52,23.10
2009,07,29,07,53,23.10
2009,07,29,07,54,23.20
2009,07,29,07,55,23.20
2009,07,29,07,56,23.20
2009,07,29,07,57,23.30
2009,07,29,07,58,23.30
2009,07,29,07,59,23.40
2009,07,29,08,00,23.40
2009,07,29,08,01,23.50
2009,07,29,08,02,23.50
2009,07,29,08,03,23.60
2009,07,29,08,04,23.60
2009,07,29,08,05,23.70
2009,07,29,08,06,23.70
2009,07,29,08,07,23.70
2009,07,29,08,08,23.70
2009,07,29,08,09,23.80
2009,07,29,08,10,23.80
2009,07,29,08,11,23.80
2009,07,29,08,12,23.80
2009,07,29,08,13,23.80
2009,07,29,08,14,23.70
2009,07,29,08,15,23.70
2009,07,29,08,16,23.70
2009,07,29,08,17,23.60
2009,07,29,08,18,23.60
2009,07,29,08,19,23.50
2009,07,29,08,20,23.50
2009,07,29,08,21,23.40
2009,07,29,08,22,23.40
2009,07,29,08,23,23.30
2009,07,29,08,24,23.30
2009,07,29,08,25,23.30
2009,07,29,08,26,23.30
2009,07,29,08,27,23.20
2009,07,29,08,28,23.20
2009,07,29,08,29,23.10
2009,07,29,08,30,23.10
2009,07,29,08,31,23.10
2009,07,29,08,32,23.10
2009,07,29,08,33,23.10
2009,07,29,08,34,23.10
2009,07,29,08,35,23.20
2009,07,29,08,36,23.20
2009,07,29,08,37,23.20
2009,07,29,08,38,23.30
2009,07,29,08,39,23.30
2009,07,29,08,40,23.30
2009,07,29,08,41,23.40
2009,07,29,08,42,23.40
2009,07,29,08,43,23.50
2009,07,29,08,44,23.60
2009,07,29,08,45,23.60
2009,07,29,08,46,23.60
2009,07,29,08,47,23.70
2009,07,29,08,48,23.70
2009,07,29,08,49,23.80
2009,07,29,08,50,23.80
2009,07,29,08,51,23.90
2009,07,29,08,52,23.90
2009,07,29,08,53,24.00
2009,07,29,08,54,24.10
2009,07,29,08,55,24.10
2009,07,29,08,56,24.10
2009,07,29,08,57,24.20
2009,07,29,08,58,24.20
2009,07,29,08,59,24.20
2009,07,29,09,00,24.30
2009,07,29,09,01,24.30
2009,07,29,09,02,24.30
2009,07,29,09,03,24.40
2009,07,29,09,04,24.40
2009,07,29,09,05,24.40
2009,07,29,09,06,24.40
2009,07,29,09,07,24.50
2009,07,29,09,08,24.50
2009,07,29,09,09,24.60
2009,07,29,09,10,24.60
2009,07,29,09,11,24.60
2009,07,29,09,12,24.70
2009,07,29,09,13,24.70
2009,07,29,09,14,24.80
2009,07,29,09,15,24.80
2009,07,29,09,16,24.80
2009,07,29,09,17,24.90
2009,07,29,09,18,24.90
2009,07,29,09,19,25.00
2009,07,29,09,20,25.10
2009,07,29,09,21,25.10
2009,07,29,09,22,25.10
2009,07,29,09,23,25.10
2009,07,29,09,24,25.10
2009,07,29,09,25,25.10
2009,07,29,09,26,25.10
2009,07,29,09,27,25.10
2009,07,29,09,28,25.10
2009,07,29,09,29,25.10
2009,07,29,09,30,25.10
2009,07,29,09,31,25.10
2009,07,29,09,32,25.20
2009,07,29,09,33,25.20
2009,07,29,09,34,25.20
2009,07,29,09,35,25.20
2009,07,29,09,36,25.20
2009,07,29,09,37,25.20
2009,07,29,09,38,25.20
2009,07,29,09,39,25.10
2009,07,29,09,40,25.20
2009,07,29,09,41,25.20
2009,07,29,09,42,25.20
2009,07,29,09,43,25.20
2009,07,29,09,44,25.20
2009,07,29,09,45,25.30
2009,07,29,09,46,25.30
2009,07,29,09,47,25.40
2009,07,29,09,48,25.40
2009,07,29,09,49,25.50
2009,07,29,09,50,25.50
2009,07,29,09,51,25.60
2009,07,29,09,52,25.60
2009,07,29,09,53,25.60
2009,07,29,09,54,25.60
2009,07,29,09,55,25.70
2009,07,29,09,56,25.70
2009,07,29,09,57,25.70
2009,07,29,09,58,25.70
2009,07,29,09,59,25.70
2009,07,29,10,00,25.70
2009,07,29,10,01,25.70
2009,07,29,10,02,25.70
2009,07,29,10,03,25.70
2009,07,29,10,04,25.70
2009,07,29,10,05,25.70
2009,07,29,10,06,25.60
2009,07,29,10,07,25.60
2009,07,29,10,08,25.60
2009,07,29,10,09,25.60
2009,07,29,10,10,25.60
2009,07,29,10,11,25.60
2009,07,29,10,12,25.60
2009,07,29,10,13,25.60
2009,07,29,10,14,25.70
2009,07,29,10,15,25.70
2009,07,29,10,16,25.70
2009,07,29,10,17,25.70
2009,07,29,10,18,25.80
2009,07,29,10,19,25.90
2009,07,29,10,20,25.90
2009,07,29,10,21,26.00
2009,07,29,10,22,26.00
2009,07,29,10,23,26.00
2009,07,29,10,24,26.10
2009,07,29,10,25,26.10
2009,07,29,10,26,26.20
2009,07,29,10,27,26.30
2009,07,29,10,28,26.40
2009,07,29,10,29,26.50
2009,07,29,10,30,26.50
2009,07,29,10,31,26.60
2009,07,29,10,32,26.70
2009,07,29,10,33,26.80
2009,07,29,10,34,26.80
2009,07,29,10,35,26.80
2009,07,29,10,36,26.80
2009,07,29,10,37,26.70
2009,07,29,10,38,26.70
2009,07,29,10,39,26.80
2009,07,29,10,40,26.80
2009,07,29,10,41,26.80
2009,07,29,10,42,26.90
2009,07,29,10,43,26.90
2009,07,29,10,44,26.90
2009,07,29,10,45,26.90
2009,07,29,10,46,27.00
2009,07,29,10,47,27.10
2009,07,29,10,48,27.10
2009,07,29,10,49,27.20
2009,07,29,10,50,27.20
2009,07,29,10,51,27.30
2009,07,29,10,52,27.30
2009,07,29,10,53,27.30
2009,07,29,10,54,27.40
2009,07,29,10,55,27.40
2009,07,29,10,56,27.50
2009,07,29,10,57,27.50
2009,07,29,10,58,27.50
2009,07,29,10,59,27.50
2009,07,29,11,00,27.60
2009,07,29,11,01,27.60
2009,07,29,11,02,27.60
2009,07,29,11,03,27.70
2009,07,29,11,04,27.70
2009,07,29,11,05,27.80
2009,07,29,11,06,27.80
2009,07,29,11,07,27.90
2009,07,29,11,08,27.90
2009,07,29,11,09,27.90
2009,07,29,11,10,27.90
2009,07,29,11,11,27.90
2009,07,29,11,12,27.90
2009,07,29,11,13,27.90
2009,07,29,11,14,27.90
2009,07,29,11,15,27.90
2009,07,29,11,16,27.90
2009,07,29,11,17,27.80
2009,07,29,11,18,27.80
2009,07,29,11,19,27.80
2009,07,29,11,20,27.70
2009,07,29,11,21,27.70
2009,07,29,11,22,27.80
2009,07,29,11,23,27.80
2009,07,29,11,24,27.80
2009,07,29,11,25,27.80
2009,07,29,11,26,27.90
2009,07,29,11,27,27.90
2009,07,29,11,28,27.90
2009,07,29,11,29,27.90
2009,07,29,11,30,28.00
2009,07,29,11,31,28.00
2009,07,29,11,32,28.00
2009,07,29,11,33,28.00
2009,07,29,11,34,27.90
2009,07,29,11,35,27.90
2009,07,29,11,36,27.90
2009,07,29,11,37,27.90
2009,07,29,11,38,27.90
2009,07,29,11,39,27.90
2009,07,29,11,40,27.90
2009,07,29,11,41,27.90
2009,07,29,11,42,27.90
2009,07,29,11,43,27.90
2009,07,29,11,44,28.00
2009,07,29,11,45,28.00
2009,07,29,11,46,28.00
2009,07,29,11,47,28.00
2009,07,29,11,48,28.10
2009,07,29,11,49,28.10
2009,07,29,11,50,28.10
2009,07,29,11,51,28.10
2009,07,29,11,52,28.10
2009,07,29,11,53,28.10
2009,07,29,11,54,28.00
2009,07,29,11,55,28.00
2009,07,29,11,56,27.90
2009,07,29,11,57,27.90
2009,07,29,11,58,27.80
2009,07,29,11,59,27.70
2009,07,29,12,00,27.70
2009,07,29,12,01,27.70
2009,07,29,12,02,27.70
2009,07,29,12,03,27.80
2009,07,29,12,04,27.80
2009,07,29,12,05,27.90
2009,07,29,12,06,28.00
2009,07,29,12,07,28.00
2009,07,29,12,08,28.10
2009,07,29,12,09,28.10
2009,07,29,12,10,28.20
2009,07,29,12,11,28.30
2009,07,29,12,12,28.30
2009,07,29,12,13,28.40
2009,07,29,12,14,28.40
2009,07,29,12,15,28.40
2009,07,29,12,16,28.50
2009,07,29,12,17,28.50
2009,07,29,12,18,28.50
2009,07,29,12,19,28.50
2009,07,29,12,20,28.50
2009,07,29,12,21,28.50
2009,07,29,12,22,28.40
2009,07,29,12,23,28.30
2009,07,29,12,24,28.40
2009,07,29,12,25,28.40
2009,07,29,12,26,28.40
2009,07,29,12,27,28.50
2009,07,29,12,28,28.50
2009,07,29,12,29,28.60
2009,07,29,12,30,28.60
2009,07,29,12,31,28.60
2009,07,29,12,32,28.60
2009,07,29,12,33,28.60
2009,07,29,12,34,28.60
2009,07,29,12,35,28.60
2009,07,29,12,36,28.60
2009,07,29,12,37,28.70
2009,07,29,12,38,28.80
2009,07,29,12,39,28.80
2009,07,29,12,40,28.90
2009,07,29,12,41,28.90
2009,07,29,12,42,28.90
2009,07,29,12,43,28.90
2009,07,29,12,44,29.00
2009,07,29,12,45,29.00
2009,07,29,12,46,29.10
2009,07,29,12,47,29.10
2009,07,29,12,48,29.20
2009,07,29,12,49,29.20
2009,07,29,12,50,29.20
2009,07,29,12,51,29.30
2009,07,29,12,52,29.30
2009,07,29,12,53,29.30
2009,07,29,12,54,29.30
2009,07,29,12,55,29.30
2009,07,29,12,56,29.40
2009,07,29,12,57,29.50
2009,07,29,12,58,29.60
2009,07,29,12,59,29.60
2009,07,29,13,00,29.70
2009,07,29,13,01,29.70
2009,07,29,13,02,29.80
2009,07,29,13,03,29.80
2009,07,29,13,04,29.90
2009,07,29,13,05,29.90
2009,07,29,13,06,30.10
2009,07,29,13,07,30.20
2009,07,29,13,08,30.20
2009,07,29,13,09,30.20
2009,07,29,13,10,30.20
2009,07,29,13,11,30.20
2009,07,29,13,12,30.20
2009,07,29,13,13,30.20
2009,07,29,13,14,30.30
2009,07,29,13,15,30.40
2009,07,29,13,16,30.50
2009,07,29,13,17,30.50
2009,07,29,13,18,30.50
2009,07,29,13,19,30.40
2009,07,29,13,20,30.40
2009,07,29,13,21,30.30
2009,07,29,13,22,30.20
2009,07,29,13,23,30.20
2009,07,29,13,24,30.20
2009,07,29,13,25,30.20
2009,07,29,13,26,30.20
2009,07,29,13,27,30.20
2009,07,29,13,28,30.20
2009,07,29,13,29,30.20
2009,07,29,13,30,30.30
2009,07,29,13,31,30.30
2009,07,29,13,32,30.40
2009,07,29,13,33,30.60
2009,07,29,13,34,30.70
2009,07,29,13,35,30.80
2009,07,29,13,36,30.80
2009,07,29,13,37,30.90
2009,07,29,13,38,30.90
2009,07,29,13,39,30.90
2009,07,29,13,40,30.90
2009,07,29,13,41,30.90
2009,07,29,13,42,30.90
2009,07,29,13,43,30.90
2009,07,29,13,44,30.80
2009,07,29,13,45,30.80
2009,07,29,13,46,30.80
2009,07,29,13,47,30.80
2009,07,29,13,48,30.80
2009,07,29,13,49,30.80
2009,07,29,13,50,30.80
2009,07,29,13,51,30.80
2009,07,29,13,52,30.80
2009,07,29,13,53,30.80
2009,07,29,13,54,30.80
2009,07,29,13,55,30.80
2009,07,29,13,56,30.80
2009,07,29,13,57,30.80
2009,07,29,13,58,30.80
2009,07,29,13,59,30.80
2009,07,29,14,00,30.80
2009,07,29,14,01,30.90
2009,07,29,14,02,30.90
2009,07,29,14,03,31.00
2009,07,29,14,04,31.00
2009,07,29,14,05,30.90
2009,07,29,14,06,30.90
2009,07,29,14,07,30.90
2009,07,29,14,08,30.90
2009,07,29,14,09,31.00
2009,07,29,14,10,31.00
2009,07,29,14,11,31.10
2009,07,29,14,12,31.10
2009,07,29,14,13,31.20
2009,07,29,14,14,31.30
2009,07,29,14,15,31.40
2009,07,29,14,16,31.50
2009,07,29,14,17,31.60
2009,07,29,14,18,31.70
2009,07,29,14,19,31.80
2009,07,29,14,20,31.90
2009,07,29,14,21,32.00
2009,07,29,14,22,32.10
2009,07,29,14,23,32.10
2009,07,29,14,24,32.10
2009,07,29,14,25,32.10
2009,07,29,14,26,32.10
2009,07,29,14,27,32.20
2009,07,29,14,28,32.20
2009,07,29,14,29,32.20
2009,07,29,14,30,32.30
2009,07,29,14,31,32.40
2009,07,29,14,32,32.40
2009,07,29,14,33,32.50
2009,07,29,14,34,32.60
2009,07,29,14,35,32.60
2009,07,29,14,36,32.60
2009,07,29,14,37,32.60
2009,07,29,14,38,32.60
2009,07,29,14,39,32.60
2009,07,29,14,40,32.70
2009,07,29,14,41,32.70
2009,07,29,14,42,32.70
2009,07,29,14,43,32.70
2009,07,29,14,44,32.60
2009,07,29,14,45,32.60
2009,07,29,14,46,32.70
2009,07,29,14,47,32.70
2009,07,29,14,48,32.80
2009,07,29,14,49,32.80
2009,07,29,14,50,32.90
2009,07,29,14,51,32.90
2009,07,29,14,52,33.00
2009,07,29,14,53,33.10
2009,07,29,14,54,33.10
2009,07,29,14,55,33.20
2009,07,29,14,56,33.30
2009,07,29,14,57,33.40
2009,07,29,14,58,33.40
2009,07,29,14,59,33.40
2009,07,29,15,00,33.40
2009,07,29,15,01,33.30
2009,07,29,15,02,33.30
2009,07,29,15,03,33.40
2009,07,29,15,04,33.40
2009,07,29,15,05,33.50
2009,07,29,15,06,33.50
2009,07,29,15,07,33.60
2009,07,29,15,08,33.60
2009,07,29,15,09,33.60
2009,07,29,15,10,33.70
2009,07,29,15,11,33.70
2009,07,29,15,12,33.70
2009,07,29,15,13,33.70
2009,07,29,15,14,33.70
2009,07,29,15,15,33.70
2009,07,29,15,16,33.70
2009,07,29,15,17,33.70
2009,07,29,15,18,33.70
2009,07,29,15,19,33.70
2009,07,29,15,20,33.80
2009,07,29,15,21,33.80
2009,07,29,15,22,33.80
2009,07,29,15,23,33.90
2009,07,29,15,24,33.90
2009,07,29,15,25,33.90
2009,07,29,15,26,33.90
2009,07,29,15,27,33.90
2009,07,29,15,28,33.90
2009,07,29,15,29,33.80
2009,07,29,15,30,33.80
2009,07,29,15,31,33.80
2009,07,29,15,32,33.80
2009,07,29,15,33,33.80
2009,07,29,15,34,33.80
2009,07,29,15,35,33.90
2009,07,29,15,36,33.90
2009,07,29,15,37,33.90
2009,07,29,15,38,33.80
2009,07,29,15,39,33.90
2009,07,29,15,40,33.90
2009,07,29,15,41,33.90
2009,07,29,15,42,33.90
2009,07,29,15,43,33.80
2009,07,29,15,44,33.80
2009,07,29,15,45,33.80
2009,07,29,15,46,33.80
2009,07,29,15,47,33.90
2009,07,29,15,48,33.90
2009,07,29,15,49,33.90
2009,07,29,15,50,33.90
2009,07,29,15,51,33.90
2009,07,29,15,52,33.90
2009,07,29,15,53,33.90
2009,07,29,15,54,34.00
2009,07,29,15,55,34.10
2009,07,29,15,56,34.20
2009,07,29,15,57,34.30
2009,07,29,15,58,34.40
2009,07,29,15,59,34.40
2009,07,29,16,00,34.40
2009,07,29,16,01,34.40
2009,07,29,16,02,34.40
2009,07,29,16,03,34.40
2009,07,29,16,04,34.40
2009,07,29,16,05,34.40
2009,07,29,16,06,34.40
2009,07,29,16,07,34.40
2009,07,29,16,08,34.40
2009,07,29,16,09,34.50
2009,07,29,16,10,34.40
2009,07,29,16,11,34.40
2009,07,29,16,12,34.40
2009,07,29,16,13,34.50
2009,07,29,16,14,34.50
2009,07,29,16,15,34.50
2009,07,29,16,16,34.60
2009,07,29,16,17,34.60
2009,07,29,16,18,34.60
2009,07,29,16,19,34.60
2009,07,29,16,20,34.60
2009,07,29,16,21,34.70
2009,07,29,16,22,34.70
2009,07,29,16,23,34.70
2009,07,29,16,24,34.70
2009,07,29,16,25,34.70
2009,07,29,16,26,34.80
2009,07,29,16,27,34.80
2009,07,29,16,28,34.90
2009,07,29,16,29,35.00
2009,07,29,16,30,35.10
2009,07,29,16,31,35.10
2009,07,29,16,32,35.00
2009,07,29,16,33,35.10
2009,07,29,16,34,35.10
2009,07,29,16,35,35.20
2009,07,29,16,36,35.20
2009,07,29,16,37,35.20
2009,07,29,16,38,35.20
2009,07,29,16,39,35.20
2009,07,29,16,40,35.30
2009,07,29,16,41,35.30
2009,07,29,16,42,35.40
2009,07,29,16,43,35.60
2009,07,29,16,44,35.60
2009,07,29,16,45,35.70
2009,07,29,16,46,35.80
2009,07,29,16,47,35.80
2009,07,29,16,48,35.90
2009,07,29,16,49,36.00
2009,07,29,16,50,36.00
2009,07,29,16,51,36.10
2009,07,29,16,52,36.20
2009,07,29,16,53,36.20
2009,07,29,16,54,36.30
2009,07,29,16,55,36.30
2009,07,29,16,56,36.30
2009,07,29,16,57,36.40
2009,07,29,16,58,36.40
2009,07,29,16,59,36.40
2009,07,29,17,00,36.40
2009,07,29,17,01,36.40
2009,07,29,17,02,36.40
2009,07,29,17,03,36.50
2009,07,29,17,04,36.50
2009,07,29,17,05,36.60
2009,07,29,17,06,36.60
2009,07,29,17,07,36.70
2009,07,29,17,08,36.70
2009,07,29,17,09,36.70
2009,07,29,17,10,36.60
2009,07,29,17,11,36.60
2009,07,29,17,12,36.50
2009,07,29,17,13,36.50
2009,07,29,17,14,36.50
2009,07,29,17,15,36.50
2009,07,29,17,16,36.60
2009,07,29,17,17,36.70
2009,07,29,17,18,36.70
2009,07,29,17,19,36.80